CW4884 Weather Reports


Display with metric or nautical units.
time (UTC)temp
F
wind
direction
speed
MPH
gust
MPH
rain 1hr
in
rain 24hr
in
rain mn
in
humidity
%
barometer
mb
20260504174505 62 75 5.0 0.0 0.00 0.00 0.00 40 1007.4
20260504173002 62 69 4.0 0.0 0.00 0.00 0.00 40 1007.5
20260504171503 61 71 3.0 0.0 0.00 0.00 0.00 40 1007.7
20260504081558 52 16 2.0 0.0 0.00 0.00 0.00 58 1005.6
20260504050018 55 23 0.0 0.0 0.00 0.00 0.00 55 1005.2
20260504044538 56 24 0.0 0.0 0.00 0.00 0.00 53 1005.1
20260504043028 56 344 0.0 0.0 0.00 0.00 0.00 53 1005.0
20260504041529 57 344 1.0 0.0 0.00 0.00 0.00 52 1005.0
20260504040051 58 260 0.0 0.0 0.00 0.00 0.00 51 1004.9
20260504034605 58 259 0.0 0.0 0.00 0.00 0.00 50 1004.6
20260504033053 59 259 0.0 0.0 0.00 0.00 0.00 51 1004.4
20260504031601 60 259 0.0 0.0 0.00 0.00 0.00 49 1004.2
20260504030058 63 259 0.0 0.0 0.00 0.00 0.00 46 1004.0
20260504024606 65 259 0.0 0.0 0.00 0.00 0.00 41 1003.9
20260504023057 68 259 0.0 0.0 0.00 0.00 0.00 39 1003.8
20260504021554 71 259 0.0 0.0 0.00 0.00 0.00 35 1003.7
20260504020042 72 259 0.0 0.0 0.00 0.00 0.00 32 1003.7
20260504014553 72 259 1.0 0.0 0.00 0.00 0.00 31 1003.8
20260504013054 72 258 1.0 0.0 0.00 0.00 0.00 30 1003.8
20260504011543 73 258 0.0 0.0 0.00 0.00 0.00 29 1003.9
20260504010037 74 258 2.0 0.0 0.00 0.00 0.00 30 1004.0
20260504004536 74 232 2.0 0.0 0.00 0.00 0.00 29 1004.1
20260504003040 74 283 2.0 0.0 0.00 0.00 0.00 28 1004.3
20260504001534 75 286 2.0 0.0 0.00 0.00 0.00 28 1004.4
20260504000031 76 281 2.0 0.0 0.00 0.00 0.00 27 1004.4
20260503234544 77 217 1.0 0.0 0.00 0.00 0.00 28 1004.5
20260503233031 77 290 2.0 0.0 0.00 0.00 0.00 28 1004.7
20260503231528 77 323 2.0 0.0 0.00 0.00 0.00 27 1004.8
20260503230045 77 278 4.0 0.0 0.00 0.00 0.00 29 1005.3
20260503224545 77 271 2.0 0.0 0.00 0.00 0.00 28 1005.4
20260503223049 77 167 2.0 0.0 0.00 0.00 0.00 29 1005.5
20260503221540 76 173 3.0 0.0 0.00 0.00 0.00 28 1005.5
20260503220036 76 282 0.0 0.0 0.00 0.00 0.00 31 1005.9
20260503214518 75 287 2.0 0.0 0.00 0.00 0.00 36 1006.1
20260503213056 77 283 1.0 0.0 0.00 0.00 0.00 36 1006.4
20260503211547 75 229 3.0 0.0 0.00 0.00 0.00 36 1006.7
20260503210052 76 288 3.0 0.0 0.00 0.00 0.00 37 1006.9
20260503204608 75 242 1.0 0.0 0.00 0.00 0.00 35 1007.1
20260503203107 75 298 2.0 0.0 0.00 0.00 0.00 37 1007.4
20260503201552 74 161 3.0 0.0 0.00 0.00 0.00 41 1007.6
20260503200041 73 38 2.0 0.0 0.00 0.00 0.00 38 1007.8
20260503194523 73 257 2.0 0.0 0.00 0.00 0.00 38 1008.0
20260503193006 73 259 1.0 0.0 0.00 0.00 0.00 36 1008.4
20260503191609 71 211 2.0 0.0 0.00 0.00 0.00 36 1008.6
20260503190038 69 220 1.0 0.0 0.00 0.00 0.00 37 1008.8
20260503184529 68 242 0.0 0.0 0.00 0.00 0.00 42 1009.1
20260503183005 68 243 0.0 0.0 0.00 0.00 0.00 46 1009.5
20260503181614 68 244 1.0 0.0 0.00 0.00 0.00 44 1009.9
20260503180018 67 260 1.0 0.0 0.00 0.00 0.00 48 1010.2